Location: Bremen
(53.0793°N, 8.8017°E)
Time: 06:35:29
(UTC+02:00)

Tiros 1 - Pass Details

Date: 21 April 2024
Orbit: 624 x 657 km, 48.4° (Epoch: 17 May)

Event Time Altitude Azimuth Distance (km) Brightness Sun altitude
Rises 02:30:36 0° 238° (WSW) 2,924 - -23.4°
Reaches altitude 10° 02:33:03 10° 230° (SW) 2,012 - -23.3°
Maximum altitude 02:37:18 37° 163° (SSE) 979 - -23.1°
Exits shadow 02:39:00 27° 120° (ESE) 1,206 8.4 -23.0°
Drops below altitude 10° 02:41:32 10° 96° (E) 2,002 9.8 -22.8°
Sets 02:43:58 0° 89° (E) 2,907 10.8 -22.7°
